Weather History for Istanbul, Turkey

Change the Weather History Date:

Tuesday, March 5, 2013

  Actual Average Record
Temperature  
Mean Temperature 42 °F -  
Max Temperature 48 °F 52 °F 65 °F (2014)
Min Temperature 37 °F 40 °F 32 °F (2004)
Degree Days  
Heating Degree Days 22    
Moisture  
Dew Point 26 °F    
Average Humidity 54    
Maximum Humidity 87    
Minimum Humidity 25    
Precipitation  
Precipitation 0.00 in - - ()
Sea Level Pressure  
Sea Level Pressure 30.43 in    
Wind  
Wind Speed 9 mph ()    
Max Wind Speed 16 mph    
Max Gust Speed -    
Visibility 6.2 miles    
Events      
Averages and records for this station are not official NWS values.
T = Trace of Precipitation, MM = Missing Value Source: Averaged Metar Reports

Daily Weather History Graph

Daily Weather History Graph

Search for Another Location

Airport:

Trip Planner

Search our weather history database for the weather conditions in past years. The results will help you decide how hot, cold, wet, or windy it might be!

Date:

Astronomy

Mar. 05, 2013 Rise Set
Actual Time 6:32 AM EET 6:00 PM EET
Civil Twilight 6:05 AM EET 6:27 PM EET
Nautical Twilight 5:33 AM EET 6:59 PM EET
Astronomical Twilight 5:01 AM EET 7:31 PM EET
Moon 1:26 AM EET (3/5) 11:17 AM EET (3/5)
Length of Visible Light 12h 22m
Length of Day
11h 27m
Last Quarter, 44% of the Moon is Illuminated
Mar 5
Last Quarter
Mar 11
New
Mar 19
First Quarter
Mar 27
Full
Apr 3
Last Quarter

Hourly Weather History & Observations

Time (EET) Temp. Windchill Dew Point Humidity Pressure Visibility Wind Dir Wind Speed Gust Speed Precip Events Conditions
12:20 AM 42.8 °F 39.3 °F 33.8 °F 70% 30.24 in - NNE 5.8 mph - N/A   Clear
12:50 AM 41.0 °F 35.8 °F 33.8 °F 76% 30.27 in - NNW 8.1 mph - N/A   Clear
1:20 AM 41.0 °F 36.4 °F 35.6 °F 81% 30.27 in - Variable 6.9 mph - N/A   Clear
1:50 AM 41.0 °F 35.2 °F 33.8 °F 76% 30.27 in - NNW 9.2 mph - N/A   Clear
2:00 AM 40 °F - 33 °F 69% 30.29 in 6 mi NNW 9.2 mph - -  
2:20 AM 39.2 °F 33.0 °F 33.8 °F 81% 30.27 in - North 9.2 mph - N/A   Clear
2:50 AM 37.4 °F 31.4 °F 33.8 °F 87% 30.27 in - North 8.1 mph - N/A   Clear
3:20 AM 39.2 °F 35.9 °F 35.6 °F 87% 30.30 in - North 4.6 mph - N/A   Clear
3:50 AM 41.0 °F 35.2 °F 37.4 °F 87% 30.30 in - North 9.2 mph - N/A   Clear
4:20 AM 42.8 °F 38.0 °F 37.4 °F 81% 30.30 in - NNE 8.1 mph - N/A   Clear
4:50 AM 42.8 °F 37.0 °F 37.4 °F 81% 30.33 in 6.2 mi NNE 10.4 mph - N/A   Mostly Cloudy
5:20 AM 44.6 °F 38.8 °F 33.8 °F 66% 30.33 in - NNE 11.5 mph - N/A   Clear
5:50 AM 42.8 °F 36.2 °F 32.0 °F 66% 30.36 in - NNE 12.7 mph - N/A   Clear
6:20 AM 42.8 °F 36.2 °F 32.0 °F 66% 30.36 in 6.2 mi NNE 12.7 mph - N/A   Scattered Clouds
6:50 AM 42.8 °F 36.2 °F 32.0 °F 66% 30.39 in 6.2 mi NE 12.7 mph - N/A   Mostly Cloudy
7:20 AM 42.8 °F 35.1 °F 30.2 °F 61% 30.39 in 6.2 mi NE 16.1 mph - N/A   Mostly Cloudy
7:50 AM 42.8 °F 36.2 °F 28.4 °F 57% 30.42 in 6.2 mi NE 12.7 mph - N/A   Mostly Cloudy
8:00 AM 43 °F - 28 °F 42% 30.43 in 6 mi NE 12.7 mph - -   Scattered Clouds
8:20 AM 42.8 °F 35.8 °F 28.4 °F 57% 30.42 in 6.2 mi NNE 13.8 mph - N/A   Scattered Clouds
8:50 AM 44.6 °F 38.1 °F 26.6 °F 49% 30.42 in 6.2 mi NNE 13.8 mph - N/A   Scattered Clouds
9:20 AM 46.4 °F 41.1 °F 26.6 °F 46% 30.45 in 6.2 mi Variable 11.5 mph - N/A   Scattered Clouds
9:50 AM 44.6 °F 38.1 °F 23.0 °F 43% 30.45 in 6.2 mi NNE 13.8 mph - N/A   Scattered Clouds
10:20 AM 44.6 °F 38.1 °F 24.8 °F 46% 30.45 in 6.2 mi North 13.8 mph - N/A   Scattered Clouds
10:50 AM 46.4 °F 41.1 °F 23.0 °F 40% 30.48 in 6.2 mi NNE 11.5 mph - N/A   Scattered Clouds
11:20 AM 48.2 °F - 23.0 °F 37% 30.48 in 6.2 mi NNE 11.5 mph - N/A   Scattered Clouds
11:50 AM 46.4 °F 40.4 °F 24.8 °F 43% 30.48 in 6.2 mi North 13.8 mph - N/A   Scattered Clouds
12:20 PM 46.4 °F 40.4 °F 26.6 °F 46% 30.48 in 6.2 mi North 13.8 mph - N/A   Scattered Clouds
12:50 PM 46.4 °F 41.1 °F 23.0 °F 40% 30.48 in - NNE 11.5 mph - N/A   Clear
1:20 PM 46.4 °F 40.1 °F 23.0 °F 40% 30.48 in - North 15.0 mph - N/A   Clear
1:50 PM 46.4 °F 40.4 °F 21.2 °F 37% 30.48 in - NNE 13.8 mph - N/A   Clear
2:00 PM 46 °F - 22 °F 25% 30.49 in 6 mi NNE 13.8 mph - -  
2:20 PM 46.4 °F 40.1 °F 21.2 °F 37% 30.48 in - North 15.0 mph - N/A   Clear
2:50 PM 46.4 °F 40.1 °F 19.4 °F 34% 30.48 in - North 15.0 mph - N/A   Clear
3:20 PM 44.6 °F 38.4 °F 19.4 °F 37% 30.48 in - North 12.7 mph - N/A   Clear
3:50 PM 44.6 °F 38.4 °F 15.8 °F 31% 30.48 in - NNE 12.7 mph - N/A   Clear
4:20 PM 42.8 °F 35.8 °F 15.8 °F 34% 30.48 in - North 13.8 mph - N/A   Clear
4:50 PM 42.8 °F 36.2 °F 15.8 °F 34% 30.48 in - North 12.7 mph - N/A   Clear
5:20 PM 42.8 °F 37.5 °F 19.4 °F 39% 30.48 in - NNE 9.2 mph - N/A   Clear
5:50 PM 41.0 °F 34.7 °F 19.4 °F 42% 30.48 in - NE 10.4 mph - N/A   Clear
6:20 PM 41.0 °F 34.7 °F 19.4 °F 42% 30.48 in - NE 10.4 mph - N/A   Clear
6:50 PM 39.2 °F 33.0 °F 21.2 °F 49% 30.51 in - NE 9.2 mph - N/A   Clear
7:20 PM 39.2 °F 33.0 °F 23.0 °F 52% 30.51 in - NE 9.2 mph - N/A   Clear
7:50 PM 39.2 °F 33.0 °F 23.0 °F 52% 30.51 in - NE 9.2 mph - N/A   Clear
8:00 PM 39 °F - 22 °F 38% 30.52 in 6 mi NE 9.2 mph - -  
8:20 PM 39.2 °F 33.0 °F 23.0 °F 52% 30.51 in - East 9.2 mph - N/A   Clear
8:50 PM 37.4 °F 30.8 °F 23.0 °F 56% 30.51 in - East 9.2 mph - N/A   Clear
9:20 PM 39.2 °F 33.6 °F 23.0 °F 52% 30.51 in - East 8.1 mph - N/A   Clear
9:50 PM 39.2 °F 33.0 °F 23.0 °F 52% 30.51 in - ENE 9.2 mph - N/A   Clear
10:20 PM 37.4 °F 31.4 °F 23.0 °F 56% 30.51 in - NE 8.1 mph - N/A   Clear
10:50 PM 37.4 °F 31.4 °F 23.0 °F 56% 30.51 in - ENE 8.1 mph - N/A   Clear
11:20 PM 37.4 °F 32.1 °F 23.0 °F 56% 30.51 in - NE 6.9 mph - N/A   Clear
11:50 PM 37.4 °F 32.1 °F 23.0 °F 56% 30.51 in - ENE 6.9 mph - N/A   Clear